TimeEDT,TemperatureF,Dew PointF,Humidity,Sea Level PressureIn,VisibilityMPH,Wind Direction,Wind SpeedMPH,Gust SpeedMPH,PrecipitationIn,Events,Conditions,WindDirDegrees,DateUTC
12:53 AM,51.1,46.9,86,30.07,10.0,South,3.5,-,N/A,,Clear,180,2012-10-25 04:53:00
1:53 AM,52.0,46.9,83,30.06,10.0,Calm,Calm,-,N/A,,Clear,0,2012-10-25 05:53:00
2:53 AM,48.9,46.0,90,30.06,10.0,Calm,Calm,-,N/A,,Clear,0,2012-10-25 06:53:00
3:53 AM,48.0,45.0,89,30.06,10.0,Calm,Calm,-,N/A,,Clear,0,2012-10-25 07:53:00
4:53 AM,46.9,44.1,90,30.05,6.0,Calm,Calm,-,N/A,,Clear,0,2012-10-25 08:53:00
5:53 AM,46.9,44.1,90,30.05,10.0,Calm,Calm,-,N/A,,Clear,0,2012-10-25 09:53:00
6:53 AM,45.0,43.0,93,30.07,7.0,Calm,Calm,-,N/A,,Clear,0,2012-10-25 10:53:00
7:53 AM,48.9,45.0,86,30.08,9.0,SSW,3.5,-,N/A,,Clear,200,2012-10-25 11:53:00
8:53 AM,54.0,48.9,83,30.09,10.0,South,4.6,-,N/A,,Clear,170,2012-10-25 12:53:00
9:53 AM,61.0,51.1,70,30.10,10.0,SSE,4.6,-,N/A,,Clear,160,2012-10-25 13:53:00
10:53 AM,68.0,53.1,59,30.10,10.0,South,3.5,-,N/A,,Clear,170,2012-10-25 14:53:00
11:53 AM,73.0,51.1,46,30.09,10.0,SW,6.9,-,N/A,,Clear,230,2012-10-25 15:53:00
12:53 PM,75.9,50.0,40,30.07,10.0,West,6.9,-,N/A,,Clear,260,2012-10-25 16:53:00
1:53 PM,77.0,50.0,39,30.04,10.0,South,11.5,-,N/A,,Clear,190,2012-10-25 17:53:00
2:53 PM,78.1,51.1,39,30.01,10.0,Variable,4.6,-,N/A,,Clear,0,2012-10-25 18:53:00
4:53 PM,78.1,48.9,36,29.98,10.0,SW,10.4,-,N/A,,Clear,220,2012-10-25 20:53:00
5:53 PM,75.9,48.9,38,29.98,10.0,South,12.7,-,N/A,,Clear,180,2012-10-25 21:53:00
6:53 PM,72.0,48.0,43,29.99,10.0,South,4.6,-,N/A,,Clear,180,2012-10-25 22:53:00
7:53 PM,68.0,46.9,47,29.99,10.0,South,5.8,-,N/A,,Clear,180,2012-10-25 23:53:00
9:53 PM,59.0,48.0,67,29.98,10.0,SE,5.8,-,N/A,,Clear,140,2012-10-26 01:53:00
10:53 PM,55.9,46.9,72,29.99,10.0,Calm,Calm,-,N/A,,Clear,0,2012-10-26 02:53:00